EW9652 Weather Reports


Display with metric or nautical units.
time (UTC)temp
F
wind
direction
speed
MPH
gust
MPH
rain 1hr
in
rain 24hr
in
rain mn
in
humidity
%
barometer
mb
20260902191313 91 0 7.0 13.0 0.00 0.00 0.00 35 1010.8
20260902190812 90 257 4.0 12.0 0.00 0.00 0.00 36 1010.9
20260902190313 90 205 3.0 11.0 0.00 0.00 0.00 37 1010.9
20260902185814 90 317 6.0 14.0 0.00 0.00 0.00 37 1011.0
20260902185309 91 321 6.0 14.0 0.00 0.00 0.00 34 1011.0
20260902184809 91 271 6.0 14.0 0.00 0.00 0.00 35 1011.1
20260902184306 91 209 8.0 14.0 0.00 0.00 0.00 35 1011.3
20260902183808 91 208 10.0 16.0 0.00 0.00 0.00 33 1011.3
20260902183539 92 0 11.0 20.0 0.00 0.00 0.00 34 1011.5
20260902182805 92 205 12.0 20.0 0.00 0.00 0.00 34 1011.6
20260902182306 93 199 11.0 19.0 0.00 0.00 0.00 34 1011.6
20260902181805 93 193 10.0 17.0 0.00 0.00 0.00 34 1011.7
20260902181302 93 200 9.0 18.0 0.00 0.00 0.00 33 1011.9
20260902180802 92 284 9.0 18.0 0.00 0.00 0.00 34 1012.0
20260902180533 92 195 9.0 17.0 0.00 0.00 0.00 35 1012.2
20260902175804 91 261 10.0 18.0 0.00 0.00 0.00 36 1012.2
20260902175307 91 231 10.0 19.0 0.00 0.00 0.00 36 1012.3
20260902175029 91 245 8.0 19.0 0.00 0.00 0.00 35 1012.4
20260902174259 91 212 9.0 20.0 0.00 0.00 0.00 36 1012.5
20260902173759 90 193 9.0 20.0 0.00 0.00 0.00 35 1012.5
20260902173256 91 200 9.0 18.0 0.00 0.00 0.00 36 1012.6
20260902172756 90 120 10.0 17.0 0.00 0.00 0.00 37 1012.6
20260902172527 90 0 11.0 19.0 0.00 0.00 0.00 39 1012.6
20260902171754 89 0 13.0 21.0 0.00 0.00 0.00 38 1012.7
20260902171255 89 207 11.0 21.0 0.00 0.00 0.00 37 1012.8
20260902170754 89 170 8.0 16.0 0.00 0.00 0.00 39 1012.8
20260902170255 89 206 11.0 21.0 0.00 0.00 0.00 39 1012.9
20260902165753 88 0 12.0 21.0 0.00 0.00 0.00 40 1013.0
20260902165253 88 220 10.0 19.0 0.00 0.00 0.00 40 1013.0
20260902164751 88 233 10.0 17.0 0.00 0.00 0.00 40 1013.1
20260902164251 87 232 10.0 17.0 0.00 0.00 0.00 41 1013.1
20260902163750 87 227 9.0 21.0 0.00 0.00 0.00 41 1013.2
20260902163252 87 219 10.0 21.0 0.00 0.00 0.00 41 1013.2
20260902162748 87 259 11.0 19.0 0.00 0.00 0.00 41 1013.3
20260902162517 87 206 11.0 19.0 0.00 0.00 0.00 42 1013.3
20260902162018 87 226 10.0 19.0 0.00 0.00 0.00 41 1013.3
20260902161246 86 278 11.0 18.0 0.00 0.00 0.00 42 1013.2
20260902160747 86 225 13.0 19.0 0.00 0.00 0.00 43 1013.3
20260902160244 85 0 13.0 19.0 0.00 0.00 0.00 44 1013.3
20260902155744 85 212 13.0 20.0 0.00 0.00 0.00 44 1013.2
20260902155242 85 204 14.0 21.0 0.00 0.00 0.00 44 1013.3
20260902154742 85 224 15.0 22.0 0.00 0.00 0.00 44 1013.2
20260902154511 85 251 15.0 22.0 0.00 0.00 0.00 44 1013.1
20260902154011 84 197 13.0 21.0 0.00 0.00 0.00 45 1013.2
20260902153241 84 0 12.0 20.0 0.00 0.00 0.00 46 1013.1
20260902152736 84 216 13.0 18.0 0.00 0.00 0.00 46 1013.1
20260902152232 83 0 14.0 22.0 0.00 0.00 0.00 47 1013.2
20260902151731 83 0 14.0 22.0 0.00 0.00 0.00 46 1013.2
20260902151230 83 222 14.0 23.0 0.00 0.00 0.00 48 1013.3
20260902150731 83 217 14.0 23.0 0.00 0.00 0.00 47 1013.4
20260902150230 82 213 11.0 21.0 0.00 0.00 0.00 49 1013.3
20260902145730 82 212 8.0 19.0 0.00 0.00 0.00 48 1013.4
20260902145230 81 207 6.0 13.0 0.00 0.00 0.00 49 1013.6
20260902144726 80 209 6.0 12.0 0.00 0.00 0.00 51 1013.5
20260902144224 78 212 8.0 12.0 0.00 0.00 0.00 51 1013.6
20260902143725 78 210 8.0 12.0 0.00 0.00 0.00 51 1013.6
20260902143222 77 199 6.0 10.0 0.00 0.00 0.00 52 1013.6
20260902142723 77 178 6.0 10.0 0.00 0.00 0.00 53 1013.6
20260902142220 76 258 5.0 9.0 0.00 0.00 0.00 53 1013.5
20260902141720 76 223 4.0 8.0 0.00 0.00 0.00 53 1013.6
20260902141220 75 169 5.0 9.0 0.00 0.00 0.00 53 1013.7
20260902140720 74 221 5.0 9.0 0.00 0.00 0.00 54 1013.7
20260902140453 74 233 4.0 8.0 0.00 0.00 0.00 55 1013.5
20260902135718 73 216 5.0 8.0 0.00 0.00 0.00 55 1013.6
20260902135449 73 211 6.0 8.0 0.00 0.00 0.00 56 1013.6
20260902134719 72 200 6.0 8.0 0.00 0.00 0.00 56 1013.5
20260902134216 72 193 6.0 9.0 0.00 0.00 0.00 57 1013.4
20260902133714 71 230 6.0 9.0 0.00 0.00 0.00 57 1013.4
20260902133215 71 210 6.0 8.0 0.00 0.00 0.00 58 1013.3
20260902132945 71 206 6.0 8.0 0.00 0.00 0.00 58 1013.2
20260902132212 70 176 5.0 8.0 0.00 0.00 0.00 58 1013.3
20260902131716 70 186 6.0 9.0 0.00 0.00 0.00 58 1013.1
20260902131712 70 0 6.0 9.0 0.00 0.00 0.00 58 1013.2
20260902130712 70 0 6.0 8.0 0.00 0.00 0.00 58 1013.0
20260902130212 70 209 5.0 7.0 0.00 0.00 0.00 59 1013.0
20260902125711 70 190 5.0 9.0 0.00 0.00 0.00 58 1012.9
20260902125439 70 210 5.0 9.0 0.00 0.00 0.00 58 1012.9
20260902124940 70 208 5.0 6.0 0.00 0.00 0.00 58 1012.9
20260902124207 70 201 5.0 6.0 0.00 0.00 0.00 58 1012.8
20260902123712 71 189 6.0 9.0 0.00 0.00 0.00 56 1012.8
20260902123708 70 188 5.0 7.0 0.00 0.00 0.00 57 1012.7
20260902122704 71 217 6.0 10.0 0.00 0.00 0.00 56 1012.8
20260902122203 71 202 7.0 10.0 0.00 0.00 0.00 56 1012.7
20260902121935 71 198 6.0 9.0 0.00 0.00 0.00 57 1012.5
20260902121202 71 201 6.0 8.0 0.00 0.00 0.00 57 1012.5
20260902120702 71 219 6.0 8.0 0.00 0.00 0.00 57 1012.5
20260902120202 71 217 6.0 9.0 0.00 0.00 0.00 56 1012.4
20260902115702 71 195 6.0 9.0 0.00 0.00 0.00 56 1012.4
20260902115204 71 194 6.0 9.0 0.00 0.00 0.00 56 1012.4
20260902114700 71 219 6.0 9.0 0.00 0.00 0.00 56 1012.3
20260902114158 71 216 6.0 9.0 0.00 0.00 0.00 56 1012.3
20260902113658 71 208 6.0 9.0 0.00 0.00 0.00 56 1012.4
20260902113158 71 214 5.0 8.0 0.00 0.00 0.00 56 1012.3
20260902112658 71 180 6.0 8.0 0.00 0.00 0.00 55 1012.3
20260902112158 71 210 6.0 8.0 0.00 0.00 0.00 55 1012.4
20260902111657 71 193 5.0 8.0 0.00 0.00 0.00 55 1012.4
20260902111154 71 212 6.0 9.0 0.00 0.00 0.00 54 1012.4
20260902110654 72 200 7.0 9.0 0.00 0.00 0.00 54 1012.4
20260902110424 72 219 6.0 10.0 0.00 0.00 0.00 54 1012.5
20260902105654 72 228 7.0 11.0 0.00 0.00 0.00 54 1012.4
20260902105154 72 0 7.0 11.0 0.00 0.00 0.00 53 1012.3
20260902104652 73 200 7.0 9.0 0.00 0.00 0.00 53 1012.2
20260902104149 73 333 7.0 9.0 0.00 0.00 0.00 53 1012.2
20260902103650 73 196 7.0 10.0 0.00 0.00 0.00 52 1012.1
20260902103147 73 194 8.0 11.0 0.00 0.00 0.00 52 1012.1
20260902102648 73 193 8.0 11.0 0.00 0.00 0.00 52 1012.0
20260902102419 73 200 7.0 11.0 0.00 0.00 0.00 52 1012.1
20260902101648 73 203 7.0 11.0 0.00 0.00 0.00 53 1012.1
20260902101148 72 166 7.0 11.0 0.00 0.00 0.00 53 1012.1
20260902100919 72 194 6.0 10.0 0.00 0.00 0.00 53 1012.1
20260902100145 72 0 6.0 9.0 0.00 0.00 0.00 53 1012.2
20260902095646 72 160 6.0 9.0 0.00 0.00 0.00 53 1012.2
20260902095146 72 141 6.0 9.0 0.00 0.00 0.00 53 1012.2
20260902094644 72 174 5.0 8.0 0.00 0.00 0.00 53 1012.3
20260902094143 72 0 5.0 7.0 0.00 0.00 0.00 53 1012.3
20260902093642 72 211 5.0 7.0 0.00 0.00 0.00 53 1012.4
20260902093141 72 187 4.0 7.0 0.00 0.00 0.00 53 1012.5
20260902092640 72 162 5.0 8.0 0.00 0.00 0.00 53 1012.4
20260902092140 72 161 6.0 9.0 0.00 0.00 0.00 53 1012.4
20260902091638 73 195 6.0 9.0 0.00 0.00 0.00 53 1012.5
20260902091138 73 199 7.0 10.0 0.00 0.00 0.00 53 1012.5
20260902090637 73 193 7.0 11.0 0.00 0.00 0.00 53 1012.6
20260902090136 73 212 8.0 13.0 0.00 0.00 0.00 53 1012.6
20260902085635 73 217 8.0 13.0 0.00 0.00 0.00 53 1012.7
20260902085136 73 202 8.0 11.0 0.00 0.00 0.00 53 1012.6
20260902084636 73 0 8.0 11.0 0.00 0.00 0.00 53 1012.6
20260902084406 73 214 8.0 11.0 0.00 0.00 0.00 53 1012.7
20260902083631 73 208 8.0 11.0 0.00 0.00 0.00 53 1012.7
20260902083133 73 200 8.0 13.0 0.00 0.00 0.00 53 1012.6
20260902082630 73 194 7.0 13.0 0.00 0.00 0.00 53 1012.6
20260902082130 73 215 7.0 10.0 0.00 0.00 0.00 53 1012.7
20260902081630 73 224 7.0 10.0 0.00 0.00 0.00 53 1012.6
20260902081130 73 201 7.0 10.0 0.00 0.00 0.00 53 1012.7
20260902080630 73 202 7.0 10.0 0.00 0.00 0.00 53 1012.7
20260902080130 73 187 6.0 9.0 0.00 0.00 0.00 53 1012.7
20260902075627 73 207 6.0 8.0 0.00 0.00 0.00 53 1012.7
20260902075126 73 203 6.0 9.0 0.00 0.00 0.00 52 1012.7
20260902074626 74 200 6.0 10.0 0.00 0.00 0.00 51 1012.8
20260902074126 74 195 6.0 10.0 0.00 0.00 0.00 51 1012.7
20260902073623 74 191 7.0 11.0 0.00 0.00 0.00 51 1012.7
20260902073123 74 216 8.0 12.0 0.00 0.00 0.00 50 1012.7
20260902072623 75 205 9.0 12.0 0.00 0.00 0.00 49 1012.7
20260902072352 75 0 8.0 11.0 0.00 0.00 0.00 49 1012.8
20260902071622 75 212 8.0 11.0 0.00 0.00 0.00 49 1012.8
20260902071119 75 200 8.0 12.0 0.00 0.00 0.00 49 1012.7
20260902070619 75 185 8.0 12.0 0.00 0.00 0.00 49 1012.8
20260902070119 75 203 8.0 11.0 0.00 0.00 0.00 49 1012.8
20260902065848 75 198 8.0 11.0 0.00 0.00 0.00 49 1012.8
20260902065118 75 185 7.0 11.0 0.00 0.00 0.00 49 1012.7
20260902064617 75 200 7.0 10.0 0.00 0.00 0.00 49 1012.8
20260902064346 76 203 6.0 9.0 0.00 0.00 0.00 49 1012.8
20260902063615 76 199 6.0 10.0 0.00 0.00 0.00 48 1012.8
20260902063115 76 205 5.0 10.0 0.00 0.00 0.00 48 1012.8
20260902062614 76 0 4.0 9.0 0.00 0.00 0.00 48 1012.8
20260902062117 76 192 5.0 6.0 0.00 0.00 0.00 48 1012.7
20260902062113 76 192 5.0 7.0 0.00 0.00 0.00 48 1012.8
20260902061113 76 185 4.0 6.0 0.00 0.00 0.00 47 1012.7
20260902060612 76 185 4.0 7.0 0.00 0.00 0.00 47 1012.7
20260902060111 76 183 5.0 8.0 0.00 0.00 0.00 47 1012.7
20260902055611 76 201 5.0 8.0 0.00 0.00 0.00 47 1012.7
20260902055112 76 0 6.0 9.0 0.00 0.00 0.00 47 1012.7
20260902054611 77 203 6.0 9.0 0.00 0.00 0.00 46 1012.7
20260902054112 78 176 6.0 9.0 0.00 0.00 0.00 46 1012.8
20260902053843 78 0 6.0 9.0 0.00 0.00 0.00 45 1012.7
20260902053110 78 161 6.0 9.0 0.00 0.00 0.00 44 1012.7
20260902052609 79 176 7.0 13.0 0.00 0.00 0.00 44 1012.7
20260902052341 79 202 7.0 13.0 0.00 0.00 0.00 44 1012.7
20260902051607 79 204 6.0 12.0 0.00 0.00 0.00 44 1012.7
20260902051107 78 198 4.0 8.0 0.00 0.00 0.00 44 1012.8
20260902050607 79 183 4.0 8.0 0.00 0.00 0.00 44 1012.8
20260902050338 79 191 5.0 8.0 0.00 0.00 0.00 43 1012.8
20260902045606 80 205 5.0 8.0 0.00 0.00 0.00 43 1012.9
20260902045334 80 182 6.0 11.0 0.00 0.00 0.00 42 1012.8
20260902044608 81 208 6.0 11.0 0.00 0.00 0.00 43 1012.8
20260902044604 80 234 7.0 11.0 0.00 0.00 0.00 42 1012.9
20260902043601 80 229 5.0 9.0 0.00 0.00 0.00 44 1012.9
20260902043059 81 220 6.0 9.0 0.00 0.00 0.00 42 1012.8
20260902042831 81 233 6.0 11.0 0.00 0.00 0.00 41 1012.9
20260902042059 81 0 7.0 11.0 0.00 0.00 0.00 41 1012.9
20260902041557 82 212 7.0 11.0 0.00 0.00 0.00 40 1012.9
20260902041327 82 203 9.0 15.0 0.00 0.00 0.00 40 1012.9
20260902040555 82 0 9.0 16.0 0.00 0.00 0.00 40 1012.8
20260902040055 82 187 8.0 16.0 0.00 0.00 0.00 40 1012.8
20260902035556 81 224 7.0 12.0 0.00 0.00 0.00 41 1012.9
20260902035327 82 259 6.0 12.0 0.00 0.00 0.00 40 1012.9
20260902034555 82 226 5.0 12.0 0.00 0.00 0.00 40 1012.7
20260902034056 82 172 5.0 8.0 0.00 0.00 0.00 39 1012.6
20260902033554 82 159 5.0 9.0 0.00 0.00 0.00 39 1012.4
20260902033053 82 176 6.0 10.0 0.00 0.00 0.00 39 1012.4
20260902032554 83 168 7.0 11.0 0.00 0.00 0.00 39 1012.3
20260902032054 83 153 8.0 11.0 0.00 0.00 0.00 38 1012.2
20260902031551 83 0 7.0 11.0 0.00 0.00 0.00 37 1012.1
20260902031051 83 146 7.0 12.0 0.00 0.00 0.00 37 1012.1
20260902030552 83 173 7.0 12.0 0.00 0.00 0.00 37 1012.0
20260902030050 83 0 7.0 10.0 0.00 0.00 0.00 37 1011.9
20260902025820 83 138 7.0 10.0 0.00 0.00 0.00 37 1011.8
20260902025049 83 145 7.0 9.0 0.00 0.00 0.00 37 1011.8
20260902024549 83 148 6.0 9.0 0.00 0.00 0.00 37 1011.7
20260902024044 82 149 5.0 9.0 0.00 0.00 0.00 37 1011.6
20260902023543 83 147 4.0 8.0 0.00 0.00 0.00 37 1011.6
20260902023043 83 158 4.0 8.0 0.00 0.00 0.00 36 1011.5
20260902022541 83 143 4.0 8.0 0.00 0.00 0.00 36 1011.5
20260902022043 83 141 4.0 8.0 0.00 0.00 0.00 35 1011.3
20260902021541 83 140 5.0 9.0 0.00 0.00 0.00 35 1011.2
20260902021041 84 156 5.0 9.0 0.00 0.00 0.00 34 1011.1
20260902020542 84 140 5.0 8.0 0.00 0.00 0.00 34 1011.0
20260902020042 85 143 5.0 9.0 0.00 0.00 0.00 33 1010.9
20260902015813 85 133 5.0 9.0 0.00 0.00 0.00 33 1010.8
20260902015038 85 146 5.0 8.0 0.00 0.00 0.00 33 1010.8
20260902014537 86 159 5.0 8.0 0.00 0.00 0.00 32 1010.7
20260902014035 86 137 4.0 8.0 0.00 0.00 0.00 32 1010.8
20260902013535 86 136 4.0 8.0 0.00 0.00 0.00 31 1010.8
20260902013033 87 73 6.0 8.0 0.00 0.00 0.00 31 1010.8
20260902012533 87 138 6.0 8.0 0.00 0.00 0.00 31 1010.7
20260902012035 87 163 7.0 11.0 0.00 0.00 0.00 30 1010.8
20260902011533 88 162 8.0 11.0 0.00 0.00 0.00 30 1010.7
20260902011033 88 157 9.0 12.0 0.00 0.00 0.00 30 1010.7
20260902010533 88 154 9.0 13.0 0.00 0.00 0.00 29 1010.6
20260902010033 89 166 9.0 13.0 0.00 0.00 0.00 29 1010.5
20260902005532 89 162 10.0 14.0 0.00 0.00 0.00 29 1010.5
20260902005300 89 0 12.0 16.0 0.00 0.00 0.00 29 1010.5
20260902004527 89 0 13.0 20.0 0.00 0.00 0.00 29 1010.4
20260902004258 90 0 13.0 20.0 0.00 0.00 0.00 28 1010.4
20260902003527 90 0 13.0 18.0 0.00 0.00 0.00 28 1010.4
20260902003026 91 158 12.0 17.0 0.00 0.00 0.00 27 1010.4
20260902002525 91 204 13.0 19.0 0.00 0.00 0.00 27 1010.3
20260902002023 91 0 13.0 19.0 0.00 0.00 0.00 27 1010.4
20260902001516 91 146 12.0 18.0 0.00 0.00 0.00 26 1010.4
20260902001012 92 167 10.0 16.0 0.00 0.00 0.00 27 1010.4
20260902000508 92 198 10.0 16.0 0.00 0.00 0.00 26 1010.4
20260902000008 92 219 10.0 16.0 0.00 0.00 0.00 25 1010.5
20260901235505 92 212 10.0 16.0 0.00 0.00 0.00 26 1010.4
20260901235005 92 178 11.0 16.0 0.00 0.00 0.00 25 1010.4
20260901234503 92 199 10.0 15.0 0.00 0.00 0.00 26 1010.4
20260901234001 92 194 10.0 18.0 0.00 0.00 0.00 26 1010.3
20260901233459 92 179 11.0 18.0 0.00 0.00 0.00 26 1010.2
20260901232959 92 0 11.0 17.0 0.00 0.00 0.00 27 1010.1
20260901232730 92 138 12.0 19.0 0.00 0.00 0.00 27 1010.1
20260901232000 92 130 13.0 19.0 0.00 0.00 0.00 26 1010.1
20260901231500 93 162 10.0 19.0 0.00 0.00 0.00 26 1010.0
20260901231230 92 158 11.0 20.0 0.00 0.00 0.00 26 1010.0
20260901230457 93 197 10.0 20.0 0.00 0.00 0.00 25 1010.0
20260901225956 93 0 8.0 17.0 0.00 0.00 0.00 25 1010.0
20260901225455 93 131 9.0 16.0 0.00 0.00 0.00 25 1010.0
20260901224956 93 146 10.0 19.0 0.00 0.00 0.00 25 1010.1
20260901224455 93 198 11.0 19.0 0.00 0.00 0.00 25 1010.2
20260901224226 92 0 12.0 19.0 0.00 0.00 0.00 25 1010.2
20260901223455 92 136 13.0 19.0 0.00 0.00 0.00 25 1010.1
20260901222955 93 165 10.0 17.0 0.00 0.00 0.00 25 1010.2
20260901222451 93 0 9.0 18.0 0.00 0.00 0.00 25 1010.2
20260901221951 93 193 9.0 22.0 0.00 0.00 0.00 25 1010.3
20260901221452 93 221 10.0 22.0 0.00 0.00 0.00 25 1010.4
20260901220951 93 157 10.0 19.0 0.00 0.00 0.00 25 1010.4
20260901220449 93 199 8.0 17.0 0.00 0.00 0.00 25 1010.3
20260901215949 93 122 9.0 20.0 0.00 0.00 0.00 25 1010.4
20260901215717 93 150 9.0 20.0 0.00 0.00 0.00 25 1010.6
20260901215217 93 166 11.0 20.0 0.00 0.00 0.00 25 1010.6
20260901214443 92 0 11.0 21.0 0.00 0.00 0.00 25 1010.6
20260901213944 93 0 9.0 21.0 0.00 0.00 0.00 25 1010.8
20260901213443 93 152 11.0 21.0 0.00 0.00 0.00 25 1010.8
20260901212943 93 162 12.0 22.0 0.00 0.00 0.00 25 1010.8
20260901212441 93 222 11.0 22.0 0.00 0.00 0.00 25 1010.9
20260901211942 92 0 11.0 19.0 0.00 0.00 0.00 25 1011.0
20260901211440 92 156 12.0 20.0 0.00 0.00 0.00 25 1011.2
20260901210939 93 224 9.0 20.0 0.00 0.00 0.00 25 1011.1
20260901210439 92 0 8.0 17.0 0.00 0.00 0.00 25 1011.2
20260901205938 92 170 10.0 21.0 0.00 0.00 0.00 25 1011.3
20260901205439 93 131 11.0 21.0 0.00 0.00 0.00 25 1011.4
20260901204938 92 172 11.0 27.0 0.00 0.00 0.00 26 1011.4
20260901204439 93 0 10.0 27.0 0.00 0.00 0.00 26 1011.6
20260901203939 92 117 10.0 20.0 0.00 0.00 0.00 26 1011.6
20260901203710 92 130 11.0 20.0 0.00 0.00 0.00 27 1011.8
20260901202939 92 198 10.0 18.0 0.00 0.00 0.00 26 1011.9
20260901202439 93 203 9.0 16.0 0.00 0.00 0.00 27 1011.8
20260901201939 92 153 7.0 16.0 0.00 0.00 0.00 26 1011.9
20260901201439 92 158 7.0 15.0 0.00 0.00 0.00 26 1012.0
20260901200940 91 205 8.0 15.0 0.00 0.00 0.00 26 1012.1
20260901200439 92 236 9.0 14.0 0.00 0.00 0.00 27 1012.2
20260901200209 92 154 11.0 18.0 0.00 0.00 0.00 28 1012.2
20260901195438 92 184 10.0 18.0 0.00 0.00 0.00 26 1012.4
20260901194938 92 217 10.0 19.0 0.00 0.00 0.00 28 1012.3
20260901194440 91 155 11.0 20.0 0.00 0.00 0.00 28 1012.4
20260901193937 91 159 10.0 20.0 0.00 0.00 0.00 28 1012.6
20260901193436 90 125 9.0 19.0 0.00 0.00 0.00 29 1012.5
20260901192934 89 0 11.0 19.0 0.00 0.00 0.00 29 1012.7
20260901192435 90 183 12.0 20.0 0.00 0.00 0.00 30 1012.8
20260901191933 90 0 10.0 20.0 0.00 0.00 0.00 29 1012.7